When you browse on this site, cookies collect data to enhance your experience and personalize the content and advertising you see.
Visit our Privacy Policy to learn more. By continuing to use the site, you agree to this use of cookies and data.
  • In Österreich
  • Länderverzeichnis
  • Für 7 Tage
  • Wassertemperatur
  • Wetterkarte
  • News
  • Widgets
  • user-avatar
    Anmelden

    Stündliche Wetter Berestovka

    Heute, 2 Juni, Dienstag

    Zeit Temperatur Niederschläge Wind Luftdruck Luftfeuchtigkeit
    00:00 +14°C° 0 mm 0 m/S 738 mmHg 77%
    01:00 +14°C° 0 mm 0 m/S 738 mmHg 79%
    02:00 +14°C° 0 mm 0 m/S 738 mmHg 80%
    03:00 +13°C° 0 mm 0 m/S 738 mmHg 81%
    04:00 +13°C° 0 mm 0 m/S 739 mmHg 80%
    05:00 +15°C° 0 mm 0 m/S 739 mmHg 76%
    06:00 +18°C° 0 mm 1 m/S 739 mmHg 72%
    07:00 +19°C° 0 mm 1 m/S 739 mmHg 68%
    08:00 +20°C° 0 mm 1 m/S 739 mmHg 63%
    09:00 +21°C° 0 mm 1 m/S 740 mmHg 58%
    10:00 +23°C° 0 mm 1 m/S 740 mmHg 51%
    11:00 +23°C° 0 mm 1 m/S 740 mmHg 48%
    12:00 +24°C° 0 mm 1 m/S 740 mmHg 44%
    13:00 +23°C° 0 mm 0 m/S 739 mmHg 40%
    14:00 +24°C° 0 mm 2 m/S 739 mmHg 47%
    15:00 +22°C° 0 mm 3 m/S 739 mmHg 53%
    16:00 +21°C° 0 mm 6 m/S 739 mmHg 67%
    17:00 +20°C° 0 mm 6 m/S 739 mmHg 69%
    18:00 +20°C° 0 mm 6 m/S 739 mmHg 71%
    19:00 +19°C° 0 mm 5 m/S 739 mmHg 73%
    20:00 +17°C° 0 mm 5 m/S 739 mmHg 74%
    21:00 +16°C° 0 mm 5 m/S 739 mmHg 75%
    22:00 +15°C° 0 mm 5 m/S 739 mmHg 77%
    23:00 +14°C° 0 mm 5 m/S 739 mmHg 76%

    Morgen, 3 Juni, Mittwoch

    Zeit Temperatur Niederschläge Wind Luftdruck Luftfeuchtigkeit
    00:00 +14°C° 0 mm 5 m/S 739 mmHg 76%
    01:00 +13°C° 0 mm 5 m/S 738 mmHg 75%
    02:00 +13°C° 0 mm 4 m/S 738 mmHg 76%
    03:00 +13°C° 0 mm 4 m/S 738 mmHg 77%
    04:00 +13°C° 0 mm 4 m/S 738 mmHg 78%
    05:00 +14°C° 0 mm 4 m/S 738 mmHg 77%
    06:00 +15°C° 0 mm 5 m/S 738 mmHg 77%
    07:00 +16°C° 0 mm 5 m/S 738 mmHg 77%
    08:00 +19°C° 0 mm 5 m/S 739 mmHg 72%
    09:00 +20°C° 0 mm 4 m/S 739 mmHg 68%
    10:00 +22°C° 0 mm 4 m/S 739 mmHg 63%
    11:00 +23°C° 0 mm 4 m/S 739 mmHg 58%
    12:00 +25°C° 0 mm 4 m/S 739 mmHg 52%
    13:00 +26°C° 0 mm 4 m/S 738 mmHg 47%
    14:00 +26°C° 0 mm 4 m/S 738 mmHg 46%
    15:00 +27°C° 0 mm 4 m/S 739 mmHg 46%
    16:00 +27°C° 0 mm 4 m/S 739 mmHg 45%
    17:00 +25°C° 0 mm 5 m/S 738 mmHg 53%
    18:00 +23°C° 0 mm 5 m/S 738 mmHg 60%
    19:00 +22°C° 0 mm 5 m/S 738 mmHg 67%
    20:00 +21°C° 0.1 mm 5 m/S 738 mmHg 70%
    21:00 +19°C° 0.1 mm 5 m/S 738 mmHg 73%
    22:00 +17°C° 0.1 mm 5 m/S 738 mmHg 76%
    23:00 +17°C° 0 mm 6 m/S 738 mmHg 76%

    übermorgen, 4 Juni, Donnerstag

    Zeit Temperatur Niederschläge Wind Luftdruck Luftfeuchtigkeit
    00:00 +17°C° 0 mm 6 m/S 737 mmHg 76%
    01:00 +17°C° 0 mm 6 m/S 737 mmHg 75%
    02:00 +17°C° 0.1 mm 6 m/S 737 mmHg 73%
    03:00 +16°C° 0.1 mm 7 m/S 737 mmHg 71%
    04:00 +16°C° 0.1 mm 7 m/S 737 mmHg 68%
    05:00 +16°C° 0 mm 7 m/S 737 mmHg 68%
    06:00 +16°C° 0 mm 8 m/S 737 mmHg 68%
    07:00 +16°C° 0 mm 8 m/S 737 mmHg 68%
    08:00 +17°C° 0 mm 8 m/S 738 mmHg 65%
    09:00 +18°C° 0 mm 8 m/S 738 mmHg 63%
    10:00 +20°C° 0 mm 8 m/S 738 mmHg 61%
    11:00 +21°C° 0 mm 8 m/S 738 mmHg 60%
    12:00 +21°C° 0 mm 8 m/S 738 mmHg 59%
    13:00 +22°C° 0 mm 8 m/S 738 mmHg 58%
    14:00 +22°C° 0 mm 8 m/S 738 mmHg 58%
    15:00 +22°C° 0 mm 7 m/S 738 mmHg 58%
    16:00 +22°C° 0 mm 7 m/S 739 mmHg 59%
    17:00 +20°C° 0.2 mm 7 m/S 738 mmHg 63%
    18:00 +18°C° 0.2 mm 7 m/S 738 mmHg 66%
    19:00 +17°C° 0.2 mm 7 m/S 738 mmHg 70%
    20:00 +17°C° 0.2 mm 7 m/S 738 mmHg 68%
    21:00 +16°C° 0.2 mm 7 m/S 739 mmHg 65%
    22:00 +16°C° 0.2 mm 7 m/S 739 mmHg 63%
    23:00 +16°C° 0 mm 7 m/S 739 mmHg 63%

    5 Juni, Freitag

    Zeit Temperatur Niederschläge Wind Luftdruck Luftfeuchtigkeit
    00:00 +16°C° 0 mm 7 m/S 739 mmHg 62%
    01:00 +15°C° 0 mm 7 m/S 739 mmHg 62%
    02:00 +15°C° 0 mm 7 m/S 739 mmHg 62%
    03:00 +15°C° 0 mm 7 m/S 739 mmHg 62%
    04:00 +14°C° 0 mm 7 m/S 740 mmHg 62%
    05:00 +14°C° 0.1 mm 7 m/S 740 mmHg 64%
    06:00 +14°C° 0.1 mm 7 m/S 740 mmHg 66%
    07:00 +12°C° 0.1 mm 7 m/S 740 mmHg 68%
    08:00 +14°C° 0 mm 7 m/S 740 mmHg 68%
    09:00 +14°C° 0 mm 7 m/S 740 mmHg 67%
    10:00 +14°C° 0 mm 7 m/S 741 mmHg 67%
    11:00 +15°C° 0 mm 7 m/S 741 mmHg 66%
    12:00 +16°C° 0 mm 7 m/S 741 mmHg 65%
    13:00 +16°C° 0 mm 7 m/S 741 mmHg 64%
    14:00 +16°C° 0 mm 7 m/S 741 mmHg 65%
    15:00 +16°C° 0 mm 7 m/S 741 mmHg 66%
    16:00 +16°C° 0 mm 7 m/S 741 mmHg 68%
    17:00 +15°C° 0.2 mm 7 m/S 741 mmHg 71%
    18:00 +15°C° 0.2 mm 6 m/S 741 mmHg 74%
    19:00 +14°C° 0.2 mm 6 m/S 741 mmHg 77%
    20:00 +14°C° 0.1 mm 7 m/S 741 mmHg 75%
    21:00 +14°C° 0.1 mm 7 m/S 741 mmHg 73%
    22:00 +14°C° 0.1 mm 7 m/S 741 mmHg 71%
    23:00 +14°C° 0 mm 7 m/S 741 mmHg 68%

    6 Juni, Samstag

    Zeit Temperatur Niederschläge Wind Luftdruck Luftfeuchtigkeit
    00:00 +14°C° 0 mm 7 m/S 741 mmHg 66%
    01:00 +14°C° 0 mm 7 m/S 741 mmHg 64%
    02:00 +13°C° 0.2 mm 6 m/S 741 mmHg 65%
    03:00 +13°C° 0.2 mm 6 m/S 741 mmHg 66%
    04:00 +13°C° 0.2 mm 6 m/S 741 mmHg 67%
    05:00 +11°C° 0.3 mm 6 m/S 741 mmHg 69%
    06:00 +11°C° 0.3 mm 6 m/S 741 mmHg 70%
    07:00 +11°C° 0.3 mm 6 m/S 741 mmHg 72%
    08:00 +14°C° 0 mm 6 m/S 741 mmHg 67%
    09:00 +15°C° 0 mm 6 m/S 742 mmHg 63%
    10:00 +17°C° 0 mm 6 m/S 742 mmHg 58%
    11:00 +17°C° 0 mm 6 m/S 742 mmHg 56%
    12:00 +17°C° 0 mm 6 m/S 742 mmHg 55%
    13:00 +17°C° 0 mm 6 m/S 742 mmHg 53%
    14:00 +17°C° 0 mm 6 m/S 742 mmHg 54%
    15:00 +17°C° 0 mm 6 m/S 742 mmHg 54%
    16:00 +16°C° 0 mm 6 m/S 743 mmHg 55%
    17:00 +16°C° 0 mm 5 m/S 742 mmHg 56%
    18:00 +15°C° 0 mm 5 m/S 742 mmHg 57%
    19:00 +15°C° 0 mm 5 m/S 742 mmHg 57%
    20:00 +14°C° 0 mm 4 m/S 743 mmHg 56%
    21:00 +14°C° 0 mm 4 m/S 743 mmHg 55%
    22:00 +13°C° 0 mm 3 m/S 743 mmHg 54%
    23:00 +13°C° 0 mm 3 m/S 743 mmHg 55%

    7 Juni, Sonntag

    Zeit Temperatur Niederschläge Wind Luftdruck Luftfeuchtigkeit
    00:00 +13°C° 0 mm 3 m/S 743 mmHg 55%
    01:00 +13°C° 0 mm 4 m/S 744 mmHg 56%
    02:00 +12°C° 0 mm 4 m/S 744 mmHg 59%
    03:00 +12°C° 0 mm 4 m/S 744 mmHg 62%
    04:00 +11°C° 0 mm 4 m/S 744 mmHg 64%
    05:00 +12°C° 0 mm 4 m/S 744 mmHg 63%
    06:00 +13°C° 0 mm 5 m/S 744 mmHg 61%
    07:00 +14°C° 0 mm 5 m/S 745 mmHg 59%
    08:00 +16°C° 0 mm 5 m/S 745 mmHg 54%
    09:00 +19°C° 0 mm 5 m/S 745 mmHg 50%
    10:00 +21°C° 0 mm 5 m/S 745 mmHg 45%
    11:00 +22°C° 0 mm 5 m/S 745 mmHg 43%
    12:00 +23°C° 0 mm 5 m/S 745 mmHg 40%
    13:00 +25°C° 0 mm 5 m/S 745 mmHg 38%
    14:00 +25°C° 0 mm 4 m/S 745 mmHg 38%
    15:00 +23°C° 0 mm 4 m/S 745 mmHg 38%
    16:00 +23°C° 0 mm 4 m/S 745 mmHg 38%
    17:00 +23°C° 0 mm 4 m/S 745 mmHg 43%
    18:00 +22°C° 0 mm 3 m/S 745 mmHg 49%
    19:00 +21°C° 0 mm 3 m/S 745 mmHg 54%
    20:00 +20°C° 0 mm 3 m/S 745 mmHg 56%
    21:00 +18°C° 0 mm 4 m/S 745 mmHg 58%
    22:00 +17°C° 0 mm 4 m/S 745 mmHg 60%
    23:00 +15°C° 0 mm 4 m/S 745 mmHg 62%
    Mehr zeigen